SCP
1 0 0 0 0 0 0 0 0 0 0 0 0 0 0 0 0 0 0 0 0 0 0 0 0 0 0 0 1 2 2 2 1 1 1 1 1 1 0 0 0 0 0
0 0 0 0 0 0 0 0 0 0 0 0 0 0 0 0 0 0 0 0 1 0 0 0 0 0 0 0 0 1 2 2 2 2 1 1 1 1 0 0 0 0 0
0 0 0 0 0 0 0 0 0 0 0 0 0 0 0 0 0 0 0 0 0 0 0 0 0 0 0 0 0 0 1 2 2 2 1 1 1 1 0 0 1 0 0
0 0 0 0 0 0 0 0 0 0 0 0 0 0 0 0 0 0 0 0 0 0 0 0 0 0 0 0 0 0 1 1 2 2 1 1 1 1 1 0 0 1 1
0 0 0 0 0 0 0 0 0 0 0 0 0 0 0 0 0 0 0 0 0 0 0 0 0 0 0 0 0 0 0 1 1 2 2 1 1 1 1 1 1 0 0
0 0 0 0 0 0 0 0 0 0 0 0 0 0 0 0 0 0 0 0 0 0 0 0 0 0 0 0 0 0 0 0 1 1 2 2 2 1 1 1 1 0 0
0 0 0 0 0 0 0 0 0 0 0 0 0 0 0 0 0 0 0 0 0 0 0 0 0 0 0 0 0 0 0 0 0 1 1 1 1 2 2 1 1 1 0
0 0 0 0 0 0 0 0 0 0 0 0 0 0 0 0 0 0 0 0 0 0 0 0 0 0 0 0 0 0 0 0 0 0 1 1 0 1 1 1 1 1 1
0 0 0 0 0 0 0 0 0 0 0 0 0 0 0 0 0 0 0 0 0 0 0 0 0 0 0 0 0 0 1 1 0 0 1 1 0 0 0 1 2 2 1
0 0 0 0 0 0 0 0 0 0 0 0 0 0 0 0 0 0 0 0 0 0 0 0 0 0 0 0 0 0 0 0 0 1 1 1 1 0 0 0 0 0 2
0 0 0 0 0 0 0 0 0 0 0 0 0 0 0 0 0 0 0 0 0 0 0 0 0 0 0 0 0 0 0 0 0 0 0 0 0 0 0 0 -0 0 0
0 0 0 0 0 0 0 0 0 0 0 0 0 0 0 0 0 0 0 0 0 0 0 0 0 1 0 1 0 0 0 0 0 0 0 0 0 0 1 0 0 0 1
0 0 0 0 0 0 0 0 0 0 0 0 0 0 0 0 0 0 0 0 0 0 0 0 0 0 1 1 0 0 0 0 0 0 0 0 0 0 0 1 0 0 1
0 0 0 0 0 0 0 0 0 0 0 0 0 0 0 0 0 0 0 0 0 0 0 0 0 0 0 0 0 0 0 0 0 0 0 0 -0 -0 0 0 1 1 1
0 0 0 0 0 0 0 0 0 0 0 0 0 0 0 0 0 0 0 0 0 0 0 0 0 0 0 0 0 0 0 0 0 0 0 -0 -0 -0 -0 -0 0 0 0
0 0 0 0 0 0 0 0 0 0 0 0 0 0 0 0 0 0 0 0 0 0 0 0 0 0 0 0 0 0 0 0 -0 -0 -0 -0 -0 -0 -0 -0 -0 -0 -0
0 0 0 0 0 0 0 0 0 0 0 0 0 0 0 0 0 0 0 0 0 0 0 0 0 0 0 0 0 0 0 0 0 -0 -0 -0 -0 -0 -0 -0 -0 -0 0
0 0 0 0 0 0 0 0 0 0 0 0 0 0 0 0 0 0 0 -0 -0 0 0 0 0 0 0 0 0 0 0 0 0 -0 -0 -0 -0 -0 -0 -0 -0 -0 -0
0 0 0 0 0 0 -0 0 -0 0 -0 0 0 -0 -0 -0 -0 -0 0 0 0 0 0 0 0 0 0 0 0 0 0 0 0 -0 -0 -0 -0 -0 -0 -0 -0 -0 -0
0 0 0 0 -0 -0 -0 -0 -0 0 0 -0 -0 -0 -0 0 -0 -0 0 -0 0 0 0 0 0 0 0 0 0 0 0 0 0 0 0 0 -0 -0 -0 -0 -0 0 -0
0 0 0 -0 -0 0 0 -0 -0 0 -0 0 0 0 0 0 -0 0 0 0 0 0 0 0 0 0 0 0 0 0 0 0 0 0 0 0 0 0 0 -0 -0 -0 -0
0 0 -0 -0 0 0 -0 -0 0 0 0 0 0 0 0 0 0 0 0 -0 0 0 0 0 0 0 0 0 0 0 0 0 0 0 0 0 0 -0 -0 -0 -0 -0 -0
-0 0 0 0 0 0 -0 0 0 0 0 0 0 0 0 0 0 -0 0 0 0 0 0 0 0 0 0 0 -0 -0 -0 0 0 0 0 0 0 0 0 -0 -0 -0 0
0 0 0 0 -0 -0 0 0 0 0 0 0 -0 0 -0 0 0 0 0 0 0 0 0 0 0 -0 -0 0 0 0 0 0 0 0 0 -0 -0 -0 -0 -0 -0 0 0
0 0 0 0 -0 0 0 0 -0 0 0 0 -0 -0 0 -0 0 0 0 0 0 0 0 0 0 -0 0 0 0 0 -0 -0 0 0 0 -0 -0 -0 0 -0 -0 0 0
0 0 0 -0 0 0 -0 0 -0 0 -0 -0 0 -0 0 -0 -0 0 0 0 0 0 0 0 -0 0 0 0 0 0 0 -0 0 0 0 0 0 0 0 0 -0 0 -0
Wind_Speed_500mb
20 20 23 33 35 36 38 42 42 42 42 42 43 44 46 45 44 42 44 48 47 50 42 37 35 36 39 37 33 31 31 40 43 47 45 45 44 45 46 43 40 39 37
32 23 30 31 34 35 39 40 41 42 42 43 44 43 43 43 44 41 43 43 43 44 47 47 44 45 45 43 43 37 35 32 41 49 51 48 47 48 50 51 48 45 43
28 39 28 34 36 34 41 41 41 43 43 43 45 44 43 43 42 41 40 40 40 44 49 50 48 45 47 49 47 45 40 39 36 42 50 50 54 52 52 54 55 53 49
24 31 31 36 39 39 41 41 42 43 43 45 44 42 41 43 41 40 40 43 42 44 41 38 41 44 48 51 49 48 48 44 42 37 43 50 52 54 54 55 58 59 57
26 31 34 38 40 42 41 42 41 44 46 45 43 41 41 41 40 41 41 40 40 45 46 50 57 60 63 63 61 55 50 50 46 42 39 46 54 54 53 55 57 60 60
29 32 36 41 39 45 46 43 50 44 41 41 45 42 41 36 39 40 40 38 36 38 41 47 47 47 50 53 49 45 51 48 46 38 37 39 45 53 52 53 55 54 58
30 37 38 40 44 46 48 53 50 42 42 39 43 40 40 38 40 39 34 33 28 27 33 33 39 34 34 46 46 35 42 45 45 44 38 37 37 40 50 52 49 52 54
34 39 39 43 44 49 49 47 41 45 48 40 41 45 41 32 26 17 27 24 29 26 31 42 33 34 28 15 22 34 35 42 42 40 41 38 39 36 42 52 51 48 47
36 37 39 39 41 45 43 43 43 39 41 42 36 34 21 18 29 18 16 27 22 27 32 36 32 27 18 29 20 21 25 27 33 39 40 40 39 44 41 44 44 45 42
39 34 38 39 40 36 41 33 30 34 30 34 34 33 33 36 26 30 22 16 23 25 23 27 24 19 18 24 33 20 18 19 23 27 35 42 46 45 40 55 43 42 40
34 41 38 37 39 42 37 41 42 39 36 35 34 38 38 34 33 29 32 26 26 24 26 24 22 18 13 14 20 19 20 23 28 32 35 39 45 48 48 45 68 46 36
39 38 35 32 45 40 42 47 41 42 40 40 42 39 36 38 28 29 29 32 35 27 32 30 21 16 16 14 17 23 21 18 22 24 27 31 38 47 50 49 39 60 41
40 37 35 44 38 43 45 46 41 42 41 44 44 39 40 38 37 42 43 46 38 40 32 28 24 19 19 18 15 19 16 19 17 12 13 16 23 32 45 50 45 45 45
38 35 41 38 43 43 46 40 39 40 40 39 36 34 39 35 36 39 38 41 36 33 32 26 29 23 15 12 17 16 9 9 15 14 22 25 21 12 40 45 31 35 42
38 37 39 40 43 45 40 37 36 39 36 33 31 29 28 27 29 32 31 31 27 20 23 16 19 12 17 19 15 14 12 10 10 9 7 8 29 40 45 45 62 79 64
41 36 38 43 44 43 36 33 34 31 32 26 27 25 26 25 28 24 26 25 26 29 16 15 16 18 32 15 19 21 16 28 29 16 10 12 11 18 25 48 51 57 56
36 37 42 46 46 34 31 32 31 28 26 26 21 17 18 18 20 21 25 25 29 22 29 19 12 29 20 27 27 29 43 50 51 51 48 48 41 44 46 54 53 44 40
40 39 45 48 31 29 27 28 26 21 23 23 23 21 24 21 19 13 11 13 19 21 19 10 19 31 30 36 36 40 41 44 40 36 37 37 40 40 39 37 37 36 36
41 47 45 32 20 23 21 23 20 22 22 22 25 25 24 19 18 19 16 12 17 16 24 16 36 40 32 36 41 45 41 41 36 39 44 34 45 48 44 44 40 37 32
36 41 31 19 17 17 17 20 19 20 22 25 26 25 20 17 15 12 12 17 21 22 25 26 51 48 41 38 40 48 51 44 46 42 43 35 33 38 40 38 37 35 30
36 28 25 16 16 12 14 18 19 21 23 18 21 23 14 12 6 11 20 23 29 27 40 50 41 40 47 39 38 49 55 50 49 46 46 42 41 38 35 30 30 31 31
25 23 19 14 13 12 11 17 21 20 25 25 24 33 29 22 17 23 28 22 23 31 41 45 49 47 43 39 45 52 57 50 46 40 38 36 30 38 40 38 33 27 28
21 18 18 15 15 15 14 18 16 23 32 39 35 32 31 31 35 33 36 32 30 26 20 44 36 39 48 58 59 51 46 41 38 31 32 38 31 40 39 40 35 33 33
20 19 20 22 18 18 16 9 13 18 23 29 31 39 30 28 30 33 32 34 30 29 34 40 39 40 59 56 47 42 40 41 35 31 29 39 31 33 37 36 32 28 27
23 22 21 23 23 22 18 15 25 26 26 29 38 41 38 36 38 40 44 43 37 35 38 46 60 62 56 53 42 32 36 34 31 29 28 33 32 34 29 29 27 29 29
22 19 23 26 25 22 18 14 21 23 23 30 38 45 42 40 36 40 46 47 55 57 69 70 56 50 51 39 30 25 18 31 31 31 27 34 34 36 31 27 32 34 30
Wind_Direction_500mb
288 314 314 321 319 322 324 318 311 304 301 296 290 285 279 276 275 272 269 276 285 287 288 286 278 278 281 279 282 274 263 250 246 244 242 247 245 244 243 245 244 243 244
304 318 320 313 320 318 317 315 309 304 302 297 290 285 280 274 271 268 266 269 281 282 291 288 283 274 274 279 274 274 270 262 250 246 245 246 245 244 243 242 245 245 244
294 305 321 322 317 309 321 313 307 304 301 296 291 285 277 273 271 266 266 267 270 283 282 281 279 280 278 273 273 268 267 264 262 253 245 244 244 245 244 244 244 246 246
302 312 316 320 309 317 317 310 310 307 302 297 292 287 281 274 270 268 266 268 270 273 278 287 287 286 277 275 271 265 261 263 258 256 250 241 239 241 243 244 243 243 245
299 303 315 317 308 316 315 311 306 305 307 302 295 290 283 279 274 268 270 272 269 275 276 273 272 271 275 273 272 264 259 256 260 253 250 246 241 240 242 244 243 242 244
303 305 310 317 311 312 309 304 305 304 301 302 299 287 287 282 277 268 266 267 267 271 274 278 277 276 270 272 268 266 250 251 251 256 251 251 246 243 243 245 244 243 245
300 311 313 306 309 307 301 306 305 297 301 302 303 293 288 281 275 262 260 261 266 271 273 280 285 275 272 267 255 258 248 248 246 250 256 254 253 251 248 247 246 245 242
308 309 301 306 306 305 304 304 300 298 293 302 301 301 294 289 271 265 242 251 271 275 275 282 265 266 267 253 249 249 246 246 248 252 250 251 251 251 247 247 243 244 247
305 301 306 305 303 303 303 298 292 296 295 293 288 287 295 289 315 292 287 292 278 290 277 281 268 259 268 233 272 237 242 244 251 251 250 246 248 243 250 238 240 238 240
300 305 306 304 308 303 304 303 307 299 298 301 293 279 271 279 290 294 275 308 281 280 278 277 276 248 251 230 228 233 239 252 263 262 261 253 242 242 242 226 229 251 229
304 306 304 305 301 308 301 302 298 292 292 291 294 295 283 279 273 273 280 286 289 288 298 299 281 262 259 253 261 278 266 265 261 260 263 260 250 240 236 231 231 236 235
312 305 305 301 307 303 302 307 295 292 293 295 295 286 282 280 278 274 284 287 286 294 301 303 300 274 258 256 251 265 271 265 263 267 273 272 261 244 233 232 231 219 233
309 307 305 306 302 300 309 305 298 297 299 294 293 285 278 278 272 274 274 276 284 286 291 286 315 289 272 265 242 248 256 259 268 290 304 299 309 246 229 227 233 227 218
308 305 310 304 299 305 311 305 305 304 302 298 294 287 283 280 270 272 262 266 272 281 283 284 280 296 285 234 227 235 248 287 260 274 310 322 339 227 199 212 218 206 205
303 308 306 303 307 311 313 308 306 304 305 300 294 289 289 281 273 270 263 255 252 266 278 280 290 285 245 196 237 238 254 229 254 248 180 84 109 125 151 156 148 141 143
302 311 305 311 307 313 312 311 308 307 308 305 302 294 284 279 276 267 257 254 245 247 247 264 314 240 177 172 158 173 177 182 162 182 172 156 158 113 120 121 121 121 117
307 304 308 312 318 313 315 312 312 308 308 307 307 299 292 282 280 258 255 247 235 233 230 260 301 160 164 172 151 143 134 124 111 119 131 122 121 127 131 130 128 132 121
304 310 311 316 307 316 315 321 315 309 305 317 301 296 292 282 274 259 240 224 215 209 197 171 151 149 153 143 134 122 120 112 110 100 94 90 92 93 93 98 104 113 113
317 320 317 306 314 318 327 330 319 319 324 318 305 302 296 286 258 260 239 219 176 177 170 177 138 135 144 130 115 110 112 108 101 104 100 100 98 93 89 91 91 94 95
324 332 334 330 329 333 329 336 340 340 333 322 320 315 311 283 256 226 186 181 160 165 170 166 142 134 133 129 131 113 104 103 106 103 100 98 101 100 96 92 94 93 89
318 332 336 342 354 356 355 357 355 347 353 2 354 3 331 272 183 184 171 163 162 172 153 157 150 151 137 134 121 115 108 103 95 96 88 84 90 95 99 105 101 98 102
336 336 347 11 14 2 32 10 5 21 27 37 21 40 44 71 130 140 157 152 157 159 159 165 154 157 144 140 129 123 115 110 95 94 96 94 92 98 105 106 107 107 103
16 34 31 23 42 39 49 27 31 58 48 51 49 46 61 82 112 122 125 133 139 165 167 166 171 155 130 124 116 104 93 90 99 104 102 97 94 102 103 99 101 108 112
45 40 35 55 54 53 40 20 27 40 37 36 64 53 73 85 97 114 129 143 147 152 158 152 139 132 127 109 98 100 117 106 101 103 102 103 107 109 113 108 105 99 98
49 44 42 45 52 54 48 25 43 61 66 61 68 58 83 92 101 112 123 121 121 122 133 123 123 125 113 113 117 118 117 110 105 105 109 109 109 108 104 99 99 99 100
42 47 50 56 47 41 56 50 53 63 75 68 70 72 80 86 95 112 116 116 116 119 123 124 117 117 115 121 116 121 142 120 117 112 114 115 117 113 95 85 89 94 96
Wind_Speed_850mb
20 20 23 33 35 36 38 42 42 42 42 42 43 44 46 45 44 42 44 48 47 50 42 37 35 36 39 37 33 31 31 40 43 47 45 45 44 45 46 43 40 39 37
32 23 30 31 34 35 39 40 41 42 42 43 44 43 43 43 44 41 43 43 43 44 47 47 44 45 45 43 43 37 35 32 41 49 51 48 47 48 50 51 48 45 43
28 39 28 34 36 34 41 41 41 43 43 43 45 44 43 43 42 41 40 40 40 44 49 50 48 45 47 49 47 45 40 39 36 42 50 50 54 52 52 54 55 53 49
24 31 31 36 39 39 41 41 42 43 43 45 44 42 41 43 41 40 40 43 42 44 41 38 41 44 48 51 49 48 48 44 42 37 43 50 52 54 54 55 58 59 57
26 31 34 38 40 42 41 42 41 44 46 45 43 41 41 41 40 41 41 40 40 45 46 50 57 60 63 63 61 55 50 50 46 42 39 46 54 54 53 55 57 60 60
29 32 36 41 39 45 46 43 50 44 41 41 45 42 41 36 39 40 40 38 36 38 41 47 47 47 50 53 49 45 51 48 46 38 37 39 45 53 52 53 55 54 58
30 37 38 40 44 46 48 53 50 42 42 39 43 40 40 38 40 39 34 33 28 27 33 33 39 34 34 46 46 35 42 45 45 44 38 37 37 40 50 52 49 52 54
34 39 39 43 44 49 49 47 41 45 48 40 41 45 41 32 26 17 27 24 29 26 31 42 33 34 28 15 22 34 35 42 42 40 41 38 39 36 42 52 51 48 47
36 37 39 39 41 45 43 43 43 39 41 42 36 34 21 18 29 18 16 27 22 27 32 36 32 27 18 29 20 21 25 27 33 39 40 40 39 44 41 44 44 45 42
39 34 38 39 40 36 41 33 30 34 30 34 34 33 33 36 26 30 22 16 23 25 23 27 24 19 18 24 33 20 18 19 23 27 35 42 46 45 40 55 43 42 40
34 41 38 37 39 42 37 41 42 39 36 35 34 38 38 34 33 29 32 26 26 24 26 24 22 18 13 14 20 19 20 23 28 32 35 39 45 48 48 45 68 46 36
39 38 35 32 45 40 42 47 41 42 40 40 42 39 36 38 28 29 29 32 35 27 32 30 21 16 16 14 17 23 21 18 22 24 27 31 38 47 50 49 39 60 41
40 37 35 44 38 43 45 46 41 42 41 44 44 39 40 38 37 42 43 46 38 40 32 28 24 19 19 18 15 19 16 19 17 12 13 16 23 32 45 50 45 45 45
38 35 41 38 43 43 46 40 39 40 40 39 36 34 39 35 36 39 38 41 36 33 32 26 29 23 15 12 17 16 9 9 15 14 22 25 21 12 40 45 31 35 42
38 37 39 40 43 45 40 37 36 39 36 33 31 29 28 27 29 32 31 31 27 20 23 16 19 12 17 19 15 14 12 10 10 9 7 8 29 40 45 45 62 79 64
41 36 38 43 44 43 36 33 34 31 32 26 27 25 26 25 28 24 26 25 26 29 16 15 16 18 32 15 19 21 16 28 29 16 10 12 11 18 25 48 51 57 56
36 37 42 46 46 34 31 32 31 28 26 26 21 17 18 18 20 21 25 25 29 22 29 19 12 29 20 27 27 29 43 50 51 51 48 48 41 44 46 54 53 44 40
40 39 45 48 31 29 27 28 26 21 23 23 23 21 24 21 19 13 11 13 19 21 19 10 19 31 30 36 36 40 41 44 40 36 37 37 40 40 39 37 37 36 36
41 47 45 32 20 23 21 23 20 22 22 22 25 25 24 19 18 19 16 12 17 16 24 16 36 40 32 36 41 45 41 41 36 39 44 34 45 48 44 44 40 37 32
36 41 31 19 17 17 17 20 19 20 22 25 26 25 20 17 15 12 12 17 21 22 25 26 51 48 41 38 40 48 51 44 46 42 43 35 33 38 40 38 37 35 30
36 28 25 16 16 12 14 18 19 21 23 18 21 23 14 12 6 11 20 23 29 27 40 50 41 40 47 39 38 49 55 50 49 46 46 42 41 38 35 30 30 31 31
25 23 19 14 13 12 11 17 21 20 25 25 24 33 29 22 17 23 28 22 23 31 41 45 49 47 43 39 45 52 57 50 46 40 38 36 30 38 40 38 33 27 28
21 18 18 15 15 15 14 18 16 23 32 39 35 32 31 31 35 33 36 32 30 26 20 44 36 39 48 58 59 51 46 41 38 31 32 38 31 40 39 40 35 33 33
20 19 20 22 18 18 16 9 13 18 23 29 31 39 30 28 30 33 32 34 30 29 34 40 39 40 59 56 47 42 40 41 35 31 29 39 31 33 37 36 32 28 27
23 22 21 23 23 22 18 15 25 26 26 29 38 41 38 36 38 40 44 43 37 35 38 46 60 62 56 53 42 32 36 34 31 29 28 33 32 34 29 29 27 29 29
22 19 23 26 25 22 18 14 21 23 23 30 38 45 42 40 36 40 46 47 55 57 69 70 56 50 51 39 30 25 18 31 31 31 27 34 34 36 31 27 32 34 30
Wind_Direction_850mb
288 314 314 321 319 322 324 318 311 304 301 296 290 285 279 276 275 272 269 276 285 287 288 286 278 278 281 279 282 274 263 250 246 244 242 247 245 244 243 245 244 243 244
304 318 320 313 320 318 317 315 309 304 302 297 290 285 280 274 271 268 266 269 281 282 291 288 283 274 274 279 274 274 270 262 250 246 245 246 245 244 243 242 245 245 244
294 305 321 322 317 309 321 313 307 304 301 296 291 285 277 273 271 266 266 267 270 283 282 281 279 280 278 273 273 268 267 264 262 253 245 244 244 245 244 244 244 246 246
302 312 316 320 309 317 317 310 310 307 302 297 292 287 281 274 270 268 266 268 270 273 278 287 287 286 277 275 271 265 261 263 258 256 250 241 239 241 243 244 243 243 245
299 303 315 317 308 316 315 311 306 305 307 302 295 290 283 279 274 268 270 272 269 275 276 273 272 271 275 273 272 264 259 256 260 253 250 246 241 240 242 244 243 242 244
303 305 310 317 311 312 309 304 305 304 301 302 299 287 287 282 277 268 266 267 267 271 274 278 277 276 270 272 268 266 250 251 251 256 251 251 246 243 243 245 244 243 245
300 311 313 306 309 307 301 306 305 297 301 302 303 293 288 281 275 262 260 261 266 271 273 280 285 275 272 267 255 258 248 248 246 250 256 254 253 251 248 247 246 245 242
308 309 301 306 306 305 304 304 300 298 293 302 301 301 294 289 271 265 242 251 271 275 275 282 265 266 267 253 249 249 246 246 248 252 250 251 251 251 247 247 243 244 247
305 301 306 305 303 303 303 298 292 296 295 293 288 287 295 289 315 292 287 292 278 290 277 281 268 259 268 233 272 237 242 244 251 251 250 246 248 243 250 238 240 238 240
300 305 306 304 308 303 304 303 307 299 298 301 293 279 271 279 290 294 275 308 281 280 278 277 276 248 251 230 228 233 239 252 263 262 261 253 242 242 242 226 229 251 229
304 306 304 305 301 308 301 302 298 292 292 291 294 295 283 279 273 273 280 286 289 288 298 299 281 262 259 253 261 278 266 265 261 260 263 260 250 240 236 231 231 236 235
312 305 305 301 307 303 302 307 295 292 293 295 295 286 282 280 278 274 284 287 286 294 301 303 300 274 258 256 251 265 271 265 263 267 273 272 261 244 233 232 231 219 233
309 307 305 306 302 300 309 305 298 297 299 294 293 285 278 278 272 274 274 276 284 286 291 286 315 289 272 265 242 248 256 259 268 290 304 299 309 246 229 227 233 227 218
308 305 310 304 299 305 311 305 305 304 302 298 294 287 283 280 270 272 262 266 272 281 283 284 280 296 285 234 227 235 248 287 260 274 310 322 339 227 199 212 218 206 205
303 308 306 303 307 311 313 308 306 304 305 300 294 289 289 281 273 270 263 255 252 266 278 280 290 285 245 196 237 238 254 229 254 248 180 84 109 125 151 156 148 141 143
302 311 305 311 307 313 312 311 308 307 308 305 302 294 284 279 276 267 257 254 245 247 247 264 314 240 177 172 158 173 177 182 162 182 172 156 158 113 120 121 121 121 117
307 304 308 312 318 313 315 312 312 308 308 307 307 299 292 282 280 258 255 247 235 233 230 260 301 160 164 172 151 143 134 124 111 119 131 122 121 127 131 130 128 132 121
304 310 311 316 307 316 315 321 315 309 305 317 301 296 292 282 274 259 240 224 215 209 197 171 151 149 153 143 134 122 120 112 110 100 94 90 92 93 93 98 104 113 113
317 320 317 306 314 318 327 330 319 319 324 318 305 302 296 286 258 260 239 219 176 177 170 177 138 135 144 130 115 110 112 108 101 104 100 100 98 93 89 91 91 94 95
324 332 334 330 329 333 329 336 340 340 333 322 320 315 311 283 256 226 186 181 160 165 170 166 142 134 133 129 131 113 104 103 106 103 100 98 101 100 96 92 94 93 89
318 332 336 342 354 356 355 357 355 347 353 2 354 3 331 272 183 184 171 163 162 172 153 157 150 151 137 134 121 115 108 103 95 96 88 84 90 95 99 105 101 98 102
336 336 347 11 14 2 32 10 5 21 27 37 21 40 44 71 130 140 157 152 157 159 159 165 154 157 144 140 129 123 115 110 95 94 96 94 92 98 105 106 107 107 103
16 34 31 23 42 39 49 27 31 58 48 51 49 46 61 82 112 122 125 133 139 165 167 166 171 155 130 124 116 104 93 90 99 104 102 97 94 102 103 99 101 108 112
45 40 35 55 54 53 40 20 27 40 37 36 64 53 73 85 97 114 129 143 147 152 158 152 139 132 127 109 98 100 117 106 101 103 102 103 107 109 113 108 105 99 98
49 44 42 45 52 54 48 25 43 61 66 61 68 58 83 92 101 112 123 121 121 122 133 123 123 125 113 113 117 118 117 110 105 105 109 109 109 108 104 99 99 99 100
42 47 50 56 47 41 56 50 53 63 75 68 70 72 80 86 95 112 116 116 116 119 123 124 117 117 115 121 116 121 142 120 117 112 114 115 117 113 95 85 89 94 96